Retour au catalogue

ATLAS 5 CENTAUR DEB

LostHEO
NORAD 49363·DEBRIS·🇺🇸 United States

Lancé Oct 17, 2018 depuis Cape Canaveral Space Force Station

Loading…

Prochains Passages (prochaines 24 heures)

TLE

PériméSource: Space-Track

Époque: May 15, 2026, 01:40 UTC

1 49363U 18079FQ  26135.06959573 -.00000072  00000-0  00000-0 0  9991
2 49363  13.0909  36.6740 4887920 329.2137   9.6703  1.83692821 31593

Suivez ATLAS 5 CENTAUR DEB en temps réel avec AllMySat

Download on the App Store